Regional Weather Roundup
Issued by NWS

Home | Current Version | Previous Version | Text Only | Print | Product List | Glossary Off
Versions: 1 2 3 4 5 6 7 8 9 10 11 12 13 14 15 16 17 18 19 20 21 22 23 24 25 26 27 28 29 30 31 32 33 34 35 36 37 38 39 40 41 42 43 44 45 46 47 48 49 50

000
ASUS43 KDMX 241001
RWRIA

WEATHER ROUNDUP FOR IOWA
NATIONAL WEATHER SERVICE DES MOINES IA
500 AM CDT TUE APR 24 2018

NOTE: "FAIR" INDICATES FEW OR NO CLOUDS BELOW 12,000 FEET WITH NO
SIGNIFICANT WEATHER AND/OR OBSTRUCTIONS TO VISIBILITY.

* - THESE STATIONS ARE NOT NWS STATIONS...THUS NOT UNDER NWS
QUALITY CONTROL.  THEY ALSO DO NOT REPORT WEATHER SUCH
AS PRECIPITATION OR FOG.

IAZ001>003-012>014-020>022-031>034-043>046-241100-
   NORTHWEST IOWA

CITY           SKY/WX    TMP DP  RH WIND       PRES   REMARKS
CARROLL *      CLOUDY    41  39  93 NW6       30.12F
CHEROKEE *     PTCLDY    39  38  97 CALM      30.13F
DENISON *      CLEAR     41  39  93 CALM      30.14F
LE MARS *      CLOUDY    43  39  87 CALM      30.13S
ORANGE CITY *  CLOUDY    48  39  71 CALM      30.13S
SHELDON *      CLOUDY    41  41 100 CALM      30.11F
SIOUX CITY     PTCLDY    46  41  82 E3        30.12F
SPENCER        CLOUDY    36  34  92 N3        30.13F
STORM LAKE *   CLOUDY    46  39  76 NE6       30.12F
$$

IAZ055>058-069>071-079>083-090>094-241100-
   SOUTHWEST IOWA

CITY           SKY/WX    TMP DP  RH WIND       PRES   REMARKS
ATLANTIC *     CLOUDY    45  39  81 N5        30.12S
AUDUBON *      PTCLDY    37  34  87 CALM      30.13F
CLARINDA *     CLOUDY    45  34  65 N5        30.13S
COUNCIL BLFS * PTCLDY    48  41  76 NE8       30.11F
CRESTON *      CLOUDY    48  36  61 NE7       30.12S
HARLAN  *      CLEAR     45  41  87 N7        30.15F
LAMONI         CLEAR     45  30  55 N7        30.10R
RED OAK *      PTCLDY    43  36  75 CALM      30.11F
SHENANDOAH *   PTCLDY    37  32  81 CALM      30.12S
$$

IAZ047>049-059>061-072>074-084-241100-
   CENTRAL IOWA

CITY           SKY/WX    TMP DP  RH WIND       PRES   REMARKS
AMES           MOCLDY    43  37  79 N3        30.11S
ANKENY *       CLEAR     41  34  75 CALM      30.12S
BOONE *        CLOUDY    46  41  81 N6        30.11S
CHARITON *     CLEAR     43  30  61 NW6       30.10R
DES MOINES     PTCLDY    49  34  56 CALM      30.11F
GRINNELL*      CLOUDY    42  31  66 N5        30.11R
KNOXVILLE *    PTCLDY    46  28  49 N6        30.09R
MARSHALLTOWN   CLOUDY    39  34  82 N3        30.10S
NEWTON *       CLOUDY    46  32  57 N9        30.10S
PELLA *        CLEAR     44  31  60 N5        30.11S
$$

IAZ004>006-015-016-023>025-035-036-241100-
   NORTH CENTRAL IOWA

CITY           SKY/WX    TMP DP  RH WIND       PRES   REMARKS
ALGONA *       PTCLDY    43  37  81 NE5       30.12F
CLARION *      CLOUDY    43  39  87 N5        30.12S
ESTHERVILLE    CLEAR     37  34  89 NW7       30.12F WCI  32
FORT DODGE *   PTCLDY    42  38  85 CALM      30.13S
MASON CITY     CLOUDY    43  39  86 W3        30.13F
FOREST CITY *  FAIR      43  43 100 N3        30.13S
WEBSTER CITY * CLOUDY    45  43  93 N5        30.10F
IOWA FALLS *   FAIR      42  38  84 CALM      30.12S
$$

IAZ007>011-017>019-026>030-037>042-050>054-066-241100-
   NORTHEAST IOWA

CITY           SKY/WX    TMP DP  RH WIND       PRES   REMARKS
CEDAR RAPIDS   FAIR      43  30  60 N7        30.08S
CHARLES CITY * CLOUDY    45  39  81 N7        30.12S
CLINTON *      FAIR      42  33  70 N8        30.08
DECORAH *      FAIR      37  34  87 NW3       30.10S
DUBUQUE        FAIR      40  31  70 NE5       30.09S
MONTICELLO *   FAIR      39  34  81 NW5       30.09S
OELWEIN *      FAIR      41  34  75 NE5       30.11S
WATERLOO       FAIR      37  34  89 CALM      30.11S
$$

IAZ064-065-067-068-078-241100-
   EAST CENTRAL IOWA

CITY           SKY/WX    TMP DP  RH WIND       PRES   REMARKS
DAVENPORT      FAIR      46  32  58 NE8       30.09S
IOWA CITY      FAIR      42  30  62 CALM      30.10R
MT. PLEASANT * CLEAR     43  36  75 N6        30.07S
MUSCATINE *    FAIR      45  34  65 N5        30.08S
QUAD CITIES    FAIR      53  34  48 NE3       30.06S
$$

IAZ062-063-075>077-085>089-095>099-241100-
   SOUTHEAST IOWA

CITY           SKY/WX    TMP DP  RH WIND       PRES   REMARKS
BURLINGTON     CLEAR     48  42  80 N7        30.05S
FAIRFIELD *    CLEAR     39  28  65 N8        30.08R WCI  34
FORT MADISON * CLEAR     46  43  87 CALM      30.06S
KEOKUK *       CLEAR     50  48  93 N6        30.05R
OSKALOOSA *    FAIR      42  28  57 N6        30.09S
CENTERVILLE *    N/A     45  30  57 CALM      30.09S
OTTUMWA        CLEAR     46  28  49 N8        30.08S
WASHINGTON *   CLEAR     45  32  61 N8        30.09S
$$

ABBREVIATIONS USED IN REMARKS
   TC - TEMPERATURES IN CELSIUS
  WCI - WIND CHILL INDEX
   HX - HEAT INDEX
  VSB - VISIBILITY
$$





USA.gov is the U.S. government's official web portal to all federal, state and local government web resources and services.